Regional Weather Roundup
Issued by NWS Upton, NY

Current Version | Previous Version | Graphics & Text | Print | Product List | Glossary Off
Versions: 1 2 3 4 5 6 7 8 9 10 11 12 13 14 15 16 17 18 19 20 21 22 23 24 25 26 27

000
ASUS41 KOKX 241505
RWROKX

REGIONAL WEATHER ROUNDUP
NATIONAL WEATHER SERVICE NEW YORK NY
1100 AM EDT FRI OCT 24 2014

NOTE: "FAIR" INDICATES FEW OR NO CLOUDS BELOW 12,000 FEET WITH NO
SIGNIFICANT WEATHER AND/OR OBSTRUCTIONS TO VISIBILITY.

NYZ071-072-176-178-NJZ106-104-241600-
NEW YORK CITY METRO AREA


CITY           SKY/WX    TMP DP  RH WIND       PRES   REMARKS
CENTRAL PARK   PTSUNNY   56  42  59 VRB5      29.84F
LAGUARDIA APRT PTSUNNY   56  43  61 NW13      29.81F
KENNEDY INTL   PTSUNNY   57  44  62 NW18      29.82S
NEWARK/LIBERTY PTSUNNY   57  43  59 NW15G23   29.83S
BRNX BOT. GARD   N/A     54  41  62 N10       29.83R
TETERBORO      MOSUNNY   56  42  59 NW14      29.81F
$$

NYZ177-179-078>081-241600-
LONG ISLAND NEW YORK

CITY           SKY/WX    TMP DP  RH WIND       PRES   REMARKS
FARMINGDALE    PTSUNNY   54  45  71 N14       29.80F
ISLIP          LGT RAIN  51  48  89 NW14G23   29.77F FOG
SHIRLEY        CLOUDY    51  47  86 NW12G24   29.79S
WESTHAMPTON    CLOUDY    53  47  79 NW14G22   29.77F
MONTAUK POINT    N/A     53  47  79 NW12G21   29.74F
$$

NYZ052-065-067-241600-
HUDSON VALLEY

CITY           SKY/WX    TMP DP  RH WIND       PRES   REMARKS
WHITE PLAINS   CLOUDY    54  44  69 NW17G24   29.79F
NEWBURGH       PTSUNNY   54  46  76 N6        29.83F
MONTGOMERY     CLOUDY    56  42  59 N8G18     29.81F
POUGHKEEPSIE   CLOUDY    54  44  69 N9        29.82S
ALBANY         LGT RAIN  46  43  89 NE6       29.86F FOG
$$

NJZ001-105-106-008-010-013-015-019>022-104-241600-
NEW JERSEY

CITY           SKY/WX    TMP DP  RH WIND       PRES   REMARKS
NEWARK/LIBERTY PTSUNNY   57  43  59 NW15G23   29.83S
TETERBORO      MOSUNNY   56  42  59 NW14      29.81F
CALDWELL       CLOUDY    55  41  59 NW8       29.84S
MORRISTOWN     CLOUDY    55  45  67 N9G23     29.85R
SOMERVILLE     CLOUDY    58  42  55 N8        29.84S
SUSSEX         CLOUDY    58  44  60 N9        29.85S
ANDOVER          N/A     54  43  66 N10G23    29.85S
TRENTON        PTSUNNY   58  42  55 N8        29.86R
MILLVILLE      MOSUNNY   61  46  57 N15       29.87F
ATLANTIC CITY  CLOUDY    57  45  64 NW17G30   29.86S
WRIGHTSTOWN    PTSUNNY   58  44  61 NW16G24   29.84R
TOMS RIVER     CLOUDY    55  43  62 N8G17     29.85S
BELMAR         CLOUDY    55  41  58 NW18      29.83S
$$

PAZ047>061-062-071-241600-
EASTERN PENNSYLVANIA

CITY           SKY/WX    TMP DP  RH WIND       PRES   REMARKS
PHILADELPHIA   MOSUNNY   62  44  51 NW12      29.88F
ALLENTOWN      SUNNY     60  43  53 NW10      29.88S
SCRANTON       MOSUNNY   55  43  63 NW13G18   29.90F
$$

CTZ002-004>006-009-010-012-RIZ004-006-007-MAZ004-011-015-241600-
SOUTHERN NEW ENGLAND
 IN CT

CITY           SKY/WX    TMP DP  RH WIND       PRES   REMARKS
BRADLEY INTL   PTSUNNY   52  43  71 NW13G18   29.76S
HARTFORD       CLOUDY    52  44  74 MISG      29.77S
DANBURY        CLOUDY    51  42  71 NW10G22   29.82S
WTRBRY/OXFORD  NOT AVBL
BRIDGEPORT     PTSUNNY   54  47  77 NW12G24   29.79S
MERIDEN        CLOUDY    52  44  74 NW14      29.77F
NEW HAVEN      CLOUDY    54  46  74 NW14G21   29.77S
CHESTER        PTSUNNY   50  45  81 NW12G18   29.76S
GROTON         CLOUDY    51  46  83 N17G24    29.73F
WILLIMANTIC    CLOUDY    51  44  77 NW13G18   29.76S

 IN RI

CITY           SKY/WX    TMP DP  RH WIND       PRES   REMARKS
PROVIDENCE     CLOUDY    53  46  77 NW12G21   29.72S
BLOCK ISLAND   CLOUDY    54  46  76 NW10G17   29.71F
WESTERLY       CLOUDY    53  47  79 NW13G18   29.72F

 IN MA

CITY           SKY/WX    TMP DP  RH WIND       PRES   REMARKS
BOSTON         CLOUDY    49  48  97 NW13      29.71S
WORCESTER      CLOUDY    46  43  89 NW14      29.73R
WESTFIELD      CLOUDY    52  42  69 N13       29.77S
PROVINCETOWN   CLOUDY    52  -2  11 N21       29.68S
NANTUCKET      CLOUDY    53  48  83 NW20G30   29.66R
$$

ANZ330-335-338-340-345-350-353-355-241600-
COASTAL MARINE OBSERVATIONS


STATION/POSITION TIME  SKY/WX   TEMP    WIND        PRES    VSBY  WAVE
                                AIR SEA DIR/SP/G                  HT/PER
                 (UTC)          (F)     (DEG/KT/KT) (MB)    (MI)  (FT/S)
NY HARB ENTRANCE NOT AVBL
4S FIRE IS       1500               63                N/A           3/10
20S FIRE ISLAND  1500            54 63  320/ 17/ 21 1008.6          4/ 5
23SW MTP         1500                                 N/A           5/ 4
HUDSON CANYON    1500            56 66  320/ 17/ 21 1007.8          7/ 6
EXECUTION ROCKS  1500            55 62  320/ 12/ 17   N/A
WESTERN LI SOUND 1500            54     330/ 14/ 17   N/A           1
CENTRAL LI SOUND 1400            52 63  330/ 16/ 19   N/A           2/ 3
EASTERN LI SOUND 1400            53 63  330/ 14/ 19   N/A
ROBBINS REEF     1500            55     340/ 17/ 23 1008.7
$$


>>>>>>>>>>>>>>>>>>>>>>>>>>>> KEY <<<<<<<<<<<<<<<<<<<<<<<<<<<
>                                                          <
>     SKY/WX - SKY CONDITION/PRESENT WEATHER               <
>     TMP    - TEMPERATURE IN FAHRENHEIT                   <
>     DP     - DEWPOINT IN FAHRENHEIT                      <
>     RH     - RELATIVE HUMIDITY IN PERCENT                <
>     WIND   - DIRECTION AND SPEED IN MPH                  <
>     PRES   - MEAN SEA LEVEL PRESSURE IN INCHES OF HG     <
>     WCI    - WIND CHILL INDEX                            <
>     VSB    - VISIBILITY IN MILES                         <
>     HX     - HEAT INDEX                                  <
>     TC     - TEMPERATURE IN CELSIUS                      <
>     VRB    - VARIABLE WIND DIRECTION                     <
>                                                          <
>>>>>>>>>>>>>>>>>>>>>>>>>>>> KEY <<<<<<<<<<<<<<<<<<<<<<<<<<<





USA.gov is the U.S. government's official web portal to all federal, state and local government web resources and services.